Regional Weather Roundup
Issued by NWS Cleveland, OH

Home | Current Version | Previous Version | Text Only | Print | Product List | Glossary Off
Versions: 1 2 3 4 5 6 7 8 9 10 11 12 13 14 15 16 17 18 19 20 21 22 23 24 25 26 27 28 29 30 31 32 33 34 35 36 37 38 39 40 41 42 43 44 45 46 47 48 49 50

000
ASUS41 KCLE 220710
RWRCLE
OHIO REGIONAL WEATHER ROUNDUP
NATIONAL WEATHER SERVICE CLEVELAND, OH
300 AM EDT SUN OCT 22 2017

NOTE: "FAIR" INDICATES FEW OR NO CLOUDS BELOW 12,000 FEET WITH NO
SIGNIFICANT WEATHER AND/OR OBSTRUCTIONS TO VISIBILITY.

OHZ001>008-015>018-024>027-034-035-043-044-220800-
   NORTHWEST OHIO

CITY           SKY/WX    TMP DP  RH WIND       PRES   REMARKS
DEFIANCE       CLOUDY    57  46  66 S3        30.16S
FINDLAY        CLEAR     55  46  71 SE6       30.17S
TOLEDO EXPRESS CLEAR     50  48  93 CALM      30.16S
TOLEDO EXEC    CLEAR     56  47  71 SE5       30.18S
LIMA           CLEAR     56  48  74 S7        30.18S
$$

OHZ009>014-019>023-028>033-038-089-220800-
   NORTHEAST OHIO

CITY           SKY/WX    TMP DP  RH WIND       PRES   REMARKS
CLE-HOPKINS    PTCLDY    57  51  80 S3        30.23R
CLE-LAKEFRONT  CLEAR     60  50  69 SE7       30.21R
CUY CO. ARPT   NOT AVBL
LORAIN-ELYRIA  CLEAR     55  47  74 S7        30.21S
ASHTABULA      CLOUDY    53  50  89 S5        30.26R
AKRON-CANTON   PTCLDY    56  49  77 SE5       30.24R
WOOSTER        PTCLDY    45  44  97 SE3       30.23R
MANSFIELD      CLEAR     58  50  75 S8        30.22R
YOUNGSTOWN     CLOUDY    53  49  86 SE6       30.25R
$$

OHZ042-051>053-060>062-070>072-077>081-220800-
  SOUTHWEST OHIO

CITY           SKY/WX    TMP DP  RH WIND       PRES   REMARKS
CINC-COVINGTON PTCLDY    59  49  69 S5        30.19R
CINC-LUNKEN    CLEAR     49  49 100 CALM      30.21S FOG
HAMILTON       PTCLDY    47  46  97 CALM      30.20R
DAYTON         CLEAR     51  49  92 SE8       30.20S
WRIGHT-PAT AFB CLEAR     50  48  91 CALM      30.20R
DAYTON GENERAL CLEAR     59  47  64 S6        30.19R
WILMINGTON     PTCLDY    52  49  89 CALM      30.21R
$$

OHZ036-037-039>041-045>050-054>059-063>069-073>076-082>088-220800-
  CENTRAL AND SOUTHEAST OHIO

CITY           SKY/WX    TMP DP  RH WIND       PRES   REMARKS
COLUMBUS       MOCLDY    59  51  75 CALM      30.21R
OSU AIRPORT    CLOUDY    54  50  86 CALM      30.22R
BOLTON FIELD   MOCLDY    51  49  93 S3        30.22R
RICKENBACK AFB MOCLDY    54  51  89 CALM      30.21S
NEWARK         MOCLDY    50  48  93 CALM      30.22R
MARION         CLEAR     54  48  80 S8        30.21R
LANCASTER      CLOUDY    50  50 100 CALM      30.22R
ZANESVILLE     MOCLDY    53  50  89 CALM      30.23R
NEW PHILLY     NOT AVBL
$$




USA.gov is the U.S. government's official web portal to all federal, state and local government web resources and services.